This is the latest recevied weather packets stored in our database for station/object SP3PDK-1. If no packets are shown the sender has not sent any weather packets the latest 10 day(s).
| Time | Temp. | Humidity | Pressure | Rain* | Wind** | Luminosity | Snow |
|---|---|---|---|---|---|---|---|
| 1777933459 | 20° C | 58% | 1010.5 hPa | - | - | - | - |
| 1777932853 | 20.56° C | 57% | 1010.5 hPa | - | - | - | - |
| 1777932253 | 20° C | 57% | 1010.6 hPa | - | - | - | - |
| 1777931657 | 20° C | 59% | 1010.7 hPa | - | - | - | - |
| 1777931054 | 20.56° C | 55% | 1010.8 hPa | - | - | - | - |
| 1777930455 | 21.11° C | 52% | 1010.8 hPa | - | - | - | - |
| 1777929856 | 21.67° C | 51% | 1010.8 hPa | - | - | - | - |
| 1777929258 | 21.67° C | 51% | 1010.7 hPa | - | - | - | - |
| 1777928654 | 21.67° C | 49% | 1010.7 hPa | - | - | - | - |
| 1777928057 | 21.67° C | 49% | 1010.7 hPa | - | - | - | - |
| 1777927458 | 21.67° C | 50% | 1010.7 hPa | - | - | - | - |
| 1777926854 | 21.67° C | 49% | 1010.7 hPa | - | - | - | - |
| 1777925654 | 22.22° C | 49% | 1010.7 hPa | - | - | - | - |
| 1777925058 | 22.22° C | 48% | 1010.5 hPa | - | - | - | - |
| 1777924455 | 22.22° C | 48% | 1010.6 hPa | - | - | - | - |
| 1777923254 | 22.22° C | 47% | 1010.6 hPa | - | - | - | - |
| 1777922654 | 22.78° C | 47% | 1010.6 hPa | - | - | - | - |
| 1777922057 | 22.22° C | 47% | 1010.5 hPa | - | - | - | - |
| 1777921453 | 22.78° C | 46% | 1010.5 hPa | - | - | - | - |
| 1777920858 | 22.78° C | 47% | 1010.5 hPa | - | - | - | - |
| 1777920254 | 22.78° C | 46% | 1010.3 hPa | - | - | - | - |
| 1777919653 | 23.33° C | 45% | 1010.3 hPa | - | - | - | - |
| 1777919054 | 23.33° C | 45% | 1010.1 hPa | - | - | - | - |
| 1777918455 | 23.33° C | 44% | 1010.1 hPa | - | - | - | - |
| 1777917856 | 23.89° C | 43% | 1010.1 hPa | - | - | - | - |
* Rain since midnight (hover to see other rain measurements)
** Current wind speed in m/s (hover to see current wind gust speed)